Back to catalog

STARLINK-30597

AliveCommunicationsVLEO
NORAD 58078·PAYLOAD·🇺🇸 United States

Launched Oct 18, 2023 from Cape Canaveral Space Force Station

Loading…

Next Passes (next 24 hours)

TLE

FreshSource: CelesTrak SupGP

Epoch: Sep 14, 2026, 14:21 UTC

1 58078C 23160D   26257.59840278 -.00001019  00000+0 -36918-4 0  2575
2 58078  42.9996  90.7507 0001440 258.9592 332.5621 15.27574200    12

Track STARLINK-30597 in real time with AllMySat

Download on the App Store